カタログに戻る

SDA_1681

運用中科学PO
NORAD 65991·PAYLOAD·🇺🇸 United States

打ち上げ Oct 15, 2025 から Vandenberg Space Force Base

Loading…

次のパス (今後24時間)

TLE

最新Source: Space-Track

元期: Sep 14, 2026, 01:00 UTC

1 65991U 25230T   26257.04180648  .00000151  00000-0  12238-3 0  9991
2 65991  81.2999 129.1068 0003988 334.8048  25.2914 13.85313054 46124

AllMySatでSDA_1681をリアルタイム追跡

Download on the App Store